#timestamp,LO_Frequency,Hit,StdDev 
1650420015.8,286046999.1,N
1650420035.7,286046998.9,N
1650420055.5,286047000.3,N
1650420075.3,286046999.9,N
1650420095.2,286047000.0,N
1650420115.0,286047002.7,N
1650420115.9,286047002.7,N
1650420135.8,286047000.3,N
1650420155.6,286047001.2,N
1650420175.4,286047001.1,N
1650420195.3,286046998.5,N
1650420215.1,286046999.9,N
1650420235.8,286047000.4,N
1650420255.7,286047001.6,N
1650420275.5,286047002.7,N
1650420295.4,286047000.8,N
1650420315.2,286046998.5,N
1650420335.0,286046998.9,N
1650420336.0,286046998.9,N
1650420355.8,286046998.8,N
1650420375.6,286047000.8,N
1650420395.5,286046998.1,N
1650420415.3,286047000.4,N
1650420435.1,286047000.8,N
1650420455.9,286046998.8,N
1650420475.7,286046996.5,N
1650420495.5,286046996.8,N
1650420515.4,286046999.3,N
1650420535.2,286046999.5,N
1650420555.1,286046996.8,N
1650420556.0,286046996.8,N
1650420575.8,286046995.1,N
1650420595.6,286046996.4,N
1650420615.5,286046996.0,N
1650420635.3,286046993.4,Y
1650420655.2,286046994.0,P
1650420675.9,286046993.3,N
1650420695.7,286046996.4,N
1650420715.6,286046995.7,N
1650420735.4,286046996.2,N
1650420755.2,286046993.6,Y
1650420775.1,286047000.7,P
1650420776.0,286047000.7,N
1650420795.8,286047000.8,N
1650420815.7,286046998.4,N
1650420835.5,286046999.1,N
1650420855.3,286046996.5,N
1650420875.2,286046995.1,N
1650420895.0,286046996.1,N
1650420895.9,286046996.1,N
1650420915.7,286046995.2,N
1650420935.6,286046994.9,N
1650420955.4,286046999.5,N
1650420975.3,286046999.0,N
1650420995.1,286046998.6,N
1650421015.8,286046998.5,N
1650421035.7,286046996.6,N
1650421055.5,286046997.4,N
1650421075.3,286046996.1,N
1650421095.2,286046995.9,N
1650421115.0,286046996.2,N
1650421115.9,286046996.2,N
1650421135.8,286046997.8,N
1650421155.6,286046996.3,N
1650421175.4,286046996.3,N
1650421195.3,286046994.0,Y
1650421215.1,286046996.6,P
1650421235.9,286046998.8,P
1650421255.7,286046999.1,N
1650421275.5,286046998.5,N
1650421295.4,286046997.0,Y
1650421315.2,286047001.2,P
1650421335.1,286047000.6,N
1650421336.0,286047000.6,N
1650421355.8,286047002.7,N
1650421375.6,286046999.7,N
1650421395.5,286047001.0,N
1650421415.3,286047000.9,N
1650421435.1,286046998.2,N
1650421455.9,286046998.5,N
1650421475.7,286046998.8,N
1650421495.6,286047001.2,N
1650421515.4,286047001.0,N
1650421535.2,286046998.1,N
1650421555.1,286047000.7,N
1650421556.0,286047000.7,N
1650421575.8,286047000.6,N
1650421595.6,286046998.9,N
1650421615.5,286046996.7,N
1650421635.3,286046996.5,N
1650421655.2,286046998.7,N
1650421675.9,286047001.2,N
1650421695.7,286046998.9,N
1650421715.6,286046999.5,N
1650421735.4,286046996.8,N
1650421755.3,286046999.4,N
1650421775.1,286046998.2,N
1650421776.0,286046998.2,N
1650421795.8,286046996.9,N
1650421815.7,286046999.1,N
1650421835.5,286046999.5,N
1650421855.3,286046999.6,N
1650421875.2,286046999.6,N
1650421895.0,286046996.6,N
1650421895.9,286046996.6,N
1650421915.8,286046999.2,N
1650421935.6,286046997.1,N
1650421955.4,286046997.9,N
1650421975.3,286046997.8,N
1650421995.1,286046995.4,Y
1650422015.9,286046997.2,P
1650422035.7,286046998.9,N
1650422055.5,286046997.1,P
1650422075.4,286046999.5,N
1650422095.2,286046999.6,N
1650422115.0,286046998.7,N
1650422115.9,286046998.7,N
1650422135.8,286046997.1,Y
1650422155.6,286046996.8,P
1650422175.5,286046996.7,P
1650422195.3,286046997.8,N
1650422215.1,286046997.4,Y
1650422235.9,286047000.4,P
1650422255.7,286046999.9,N
1650422275.6,286047002.7,N
1650422295.4,286047002.3,N
1650422315.2,286047001.8,N
1650422335.1,286047011.9,Y
1650422336.0,286047001.8,P
1650422355.8,286047002.6,P
1650422375.6,286047000.3,N
1650422395.5,286047000.0,N
1650422415.3,286046999.9,N
1650422435.2,286047000.0,N
1650422455.9,286047000.6,N
1650422475.7,286047000.8,N
1650422495.6,286047001.1,N
1650422515.4,286047000.8,N
1650422535.2,286046998.1,N
1650422555.1,286047000.5,N
1650422556.0,286047000.5,N
1650422575.8,286047000.6,N
1650422595.7,286047000.0,N
1650422615.5,286046999.7,N
1650422635.3,286047000.8,N
1650422655.2,286046998.4,N
1650422675.0,286046998.3,N
1650422675.9,286046998.3,N
1650422695.7,286046999.1,N
1650422715.6,286046999.1,N
1650422735.4,286046998.4,N
1650422755.3,286047000.2,N
1650422775.1,286047000.5,N
1650422776.0,286047000.5,N
1650422795.8,286046998.3,N
1650422815.7,286047000.8,N
1650422835.5,286047001.1,N
1650422855.4,286046998.4,N
1650422875.2,286047000.6,N
1650422895.0,286047000.0,N
1650422895.9,286047000.0,N
1650422915.8,286047001.2,N
1650422935.6,286046998.3,N
1650422955.4,286046999.7,N
1650422975.3,286047000.3,N
1650422995.1,286047000.0,N
1650423015.9,286047001.1,N
1650423035.7,286047000.5,N
1650423055.5,286047002.4,N
1650423075.4,286047000.0,N
1650423095.2,286047000.0,N
1650423115.1,286047000.4,N
1650423116.0,286047000.4,N
1650423135.8,286047002.7,N
1650423155.6,286047002.5,N
1650423175.5,286047002.5,N
1650423195.3,286047000.1,N
1650423215.1,286046998.2,N
1650423235.9,286046998.4,N
1650423255.7,286046998.4,N
1650423275.6,286047000.1,N
1650423295.4,286047002.8,N
1650423315.2,286047002.5,N
1650423335.1,286046999.3,N
1650423336.0,286046999.3,N
1650423355.8,286047002.3,N
1650423375.6,286047000.5,N
1650423395.5,286047000.5,N
1650423415.3,286047004.3,Y
1650423435.2,286047002.1,P
1650423455.9,286047002.8,P
1650423475.7,286047001.5,N
1650423495.6,286047003.4,Y
1650423515.4,286047002.4,P
1650423535.3,286047003.8,P
1650423555.1,286047004.2,P
1650423556.0,286047004.2,Y
1650423575.8,286047000.2,P
1650423595.7,286047002.2,N
